Starlink 4711

operational
NORAD ID: 53701 Int'l Des: 2022-107 Owner: SPXS Country: US Constellation: starlink
LEOCIRCULAR

关于 Starlink 4711

正在加载描述...

实时位置

正在加载3D地球...

即将过境

高度历史

Altitude vs Time

uPlot chart will show altitude changes over time

两行轨道根数

1 53701U 22107B 25351.90953317 .00000151 00000-0 27553-4 0 9994
2 53701 53.2173 250.8342 0001454 89.8753 270.2406 15.08834762182519
Epoch: Dec 17, 2025 • Age: 12 hours

当前状态

高度 544.2 km
速度 7.59 km/s
星下点 -15.30°S, 154.47°W
发射日期 Sep 5, 2022
运行时间 3.2 years
类型 internet

技术详情

分类 Payload
质量 305.00 kg
干质量 290.00 kg
总质量 305.00 kg
长度 0.20 m
直径 2.80 m
跨度 9.00 m
形状 Box + pan
制造商 SPXS
平台类型 Starlink
阶段状态 In Orbit
所有者/国家 SPXS/US

大型星座

Loading constellations...